カタログに戻る

FENGYUN 1C DEB

運用中SSO
NORAD 30297·DEBRIS·🇨🇳 China

打ち上げ May 10, 1999 から Taiyuan Satellite Launch Center

Loading…

次のパス (今後24時間)

TLE

最新Source: Space-Track

元期: Sep 14, 2026, 08:29 UTC

1 30297U 99025ZJ  26257.35353324  .00009024  00000-0  18488-2 0  9992
2 30297  98.8335 216.0579 0361968  35.9445 114.5073 14.27010076990773

AllMySatでFENGYUN 1C DEBをリアルタイム追跡

Download on the App Store